TimeEST,TemperatureF,Dew PointF,Humidity,Sea Level PressureIn,VisibilityMPH,Wind Direction,Wind SpeedMPH,Gust SpeedMPH,PrecipitationIn,Events,Conditions,WindDirDegrees,DateUTC
12:53 AM,9.0,1.9,73,30.36,10.0,SW,4.6,-,N/A,,Scattered Clouds,220,2013-02-02 05:53:00
1:53 AM,9.0,1.0,70,30.34,10.0,SW,8.1,-,N/A,,Clear,230,2013-02-02 06:53:00
2:53 AM,9.0,1.9,73,30.33,10.0,SSW,6.9,-,N/A,,Clear,210,2013-02-02 07:53:00
4:53 AM,8.1,1.9,76,30.30,10.0,South,5.8,-,N/A,,Partly Cloudy,170,2013-02-02 09:53:00
5:53 AM,9.0,3.9,80,30.29,10.0,South,8.1,-,N/A,,Overcast,180,2013-02-02 10:53:00
7:53 AM,10.9,5.0,77,30.27,2.5,South,9.2,-,0.00,Snow,Light Snow,190,2013-02-02 12:53:00
8:05 AM,10.4,6.8,85,30.19,4.0,South,8.1,-,0.00,,Haze,190,2013-02-02 13:05:00
8:13 AM,10.4,6.8,85,30.19,7.0,South,5.8,-,0.00,,Overcast,180,2013-02-02 13:13:00
8:53 AM,12.9,7.0,77,30.26,6.0,SSW,11.5,-,0.00,,Haze,200,2013-02-02 13:53:00
9:22 AM,14.0,8.6,79,30.16,4.0,South,10.4,-,0.00,Snow,Light Snow,190,2013-02-02 14:22:00
9:37 AM,15.8,6.8,68,30.15,8.0,South,13.8,-,0.00,,Overcast,190,2013-02-02 14:37:00
9:53 AM,15.1,8.1,74,30.22,2.5,SSW,13.8,-,0.00,Snow,Light Snow,200,2013-02-02 14:53:00
10:17 AM,17.6,8.6,68,30.13,6.0,SSW,11.5,19.6,0.00,,Haze,200,2013-02-02 15:17:00
10:51 AM,17.6,10.4,73,30.11,2.0,SSW,13.8,21.9,0.00,Snow,Light Snow,210,2013-02-02 15:51:00
10:53 AM,17.1,10.0,74,30.19,2.5,SW,15.0,20.7,0.00,Snow,Light Snow,220,2013-02-02 15:53:00
11:02 AM,17.6,10.4,73,30.11,4.0,SSW,18.4,25.3,0.00,Snow,Light Snow,200,2013-02-02 16:02:00
11:12 AM,17.6,10.4,73,30.10,1.8,SSW,11.5,23.0,0.00,Snow,Light Snow,200,2013-02-02 16:12:00
11:22 AM,19.4,12.2,74,30.09,1.2,SSW,10.4,18.4,0.00,Snow,Light Snow,200,2013-02-02 16:22:00
11:39 AM,19.4,12.2,74,30.08,3.0,South,13.8,21.9,0.00,Snow,Light Snow,190,2013-02-02 16:39:00
11:49 AM,19.4,12.2,74,30.08,2.0,South,10.4,18.4,0.00,Snow,Light Snow,190,2013-02-02 16:49:00
11:53 AM,19.9,12.9,74,30.15,2.0,SSW,12.7,18.4,0.00,Snow,Light Snow,200,2013-02-02 16:53:00
12:11 PM,19.4,12.2,74,30.05,3.0,SSW,11.5,20.7,0.00,Snow,Light Snow,200,2013-02-02 17:11:00
12:34 PM,21.2,14.0,74,30.04,2.0,SSW,9.2,16.1,0.00,Snow,Light Snow,200,2013-02-02 17:34:00
12:42 PM,19.4,14.0,80,30.03,1.2,South,13.8,19.6,0.00,Snow,Light Snow,190,2013-02-02 17:42:00
12:53 PM,19.9,14.0,78,30.10,1.2,SSW,15.0,20.7,0.00,Snow,Light Snow,200,2013-02-02 17:53:00
1:03 PM,21.2,14.0,74,30.01,3.0,South,9.2,19.6,0.00,Snow,Light Snow,190,2013-02-02 18:03:00
1:22 PM,21.2,14.0,74,30.00,2.5,SSW,13.8,21.9,0.00,Snow,Light Snow,200,2013-02-02 18:22:00
1:28 PM,21.2,14.0,74,30.00,1.0,SSW,16.1,21.9,0.00,Snow,Light Snow,210,2013-02-02 18:28:00
1:36 PM,21.2,15.8,80,29.99,0.8,SSW,12.7,21.9,0.00,Snow,Light Snow,210,2013-02-02 18:36:00
1:48 PM,21.2,15.8,80,29.99,1.2,SSW,12.7,17.3,0.00,Snow,Light Snow,200,2013-02-02 18:48:00
1:53 PM,21.0,16.0,81,30.06,1.8,SSW,6.9,17.3,0.00,Snow,Light Snow,200,2013-02-02 18:53:00
2:01 PM,21.2,15.8,80,29.98,2.5,SSW,10.4,21.9,0.00,Snow,Light Snow,210,2013-02-02 19:01:00
2:21 PM,21.2,15.8,80,29.97,3.0,SSW,10.4,20.7,0.00,Snow,Light Snow,210,2013-02-02 19:21:00
2:31 PM,21.2,15.8,80,29.97,2.0,South,16.1,21.9,0.00,Snow,Light Snow,190,2013-02-02 19:31:00
2:40 PM,21.2,15.8,80,29.97,1.8,SSW,11.5,18.4,0.00,Snow,Light Snow,210,2013-02-02 19:40:00
2:53 PM,21.9,17.1,82,30.04,1.5,SSW,10.4,-,0.00,Snow,Light Snow,200,2013-02-02 19:53:00
3:08 PM,21.2,17.6,86,29.96,2.0,SSW,11.5,-,0.00,Snow,Light Snow,210,2013-02-02 20:08:00
3:13 PM,23.0,17.6,80,29.96,1.8,SW,9.2,-,0.00,Snow,Light Snow,220,2013-02-02 20:13:00
3:30 PM,21.2,17.6,86,29.96,2.5,SSW,9.2,-,0.00,Snow,Light Snow,200,2013-02-02 20:30:00
3:43 PM,21.2,17.6,86,29.95,1.0,SSW,13.8,-,0.00,Snow,Light Snow,200,2013-02-02 20:43:00
3:53 PM,21.9,18.0,85,30.02,1.0,South,11.5,-,0.00,Snow,Light Snow,190,2013-02-02 20:53:00
4:22 PM,23.0,17.6,80,29.94,1.2,SSW,8.1,-,0.01,Snow,Light Snow,210,2013-02-02 21:22:00
4:53 PM,23.0,18.0,81,30.02,1.5,SW,6.9,-,0.01,Snow,Light Snow,220,2013-02-02 21:53:00
5:34 PM,23.0,19.4,86,29.95,2.0,SW,4.6,-,0.00,Snow,Light Snow,220,2013-02-02 22:34:00
5:40 PM,23.0,19.4,86,29.95,1.5,SW,5.8,-,0.00,Snow,Light Snow,220,2013-02-02 22:40:00
5:53 PM,23.0,19.9,88,30.02,1.8,SW,4.6,-,0.00,Snow,Light Snow,220,2013-02-02 22:53:00
6:53 PM,23.0,19.9,88,30.03,1.5,SW,3.5,-,0.02,Snow,Light Snow,220,2013-02-02 23:53:00
7:44 PM,23.0,21.2,93,29.96,1.8,WSW,3.5,-,0.01,Snow,Light Snow,240,2013-02-03 00:44:00
7:53 PM,23.0,21.0,92,30.03,1.8,SW,4.6,-,0.01,Snow,Light Snow,220,2013-02-03 00:53:00
8:05 PM,23.0,21.2,93,29.96,2.0,SW,4.6,-,0.00,Snow,Light Snow,220,2013-02-03 01:05:00
8:15 PM,23.0,21.2,93,29.96,2.5,SW,3.5,-,0.00,Snow,Light Snow,230,2013-02-03 01:15:00
8:41 PM,23.0,19.4,86,29.96,3.0,SW,4.6,-,0.00,Snow,Light Snow,220,2013-02-03 01:41:00
8:53 PM,23.0,21.0,92,30.03,7.0,Calm,Calm,-,0.00,,Overcast,0,2013-02-03 01:53:00
9:01 PM,23.0,21.2,93,29.96,5.0,Calm,Calm,-,0.00,Snow,Light Snow,0,2013-02-03 02:01:00
9:08 PM,23.0,21.2,93,29.96,5.0,SW,4.6,-,0.00,Snow,Light Snow,230,2013-02-03 02:08:00
9:27 PM,23.0,21.2,93,29.96,2.5,SW,5.8,-,0.00,Snow,Light Snow,230,2013-02-03 02:27:00
9:40 PM,23.0,21.2,93,29.96,1.8,SW,4.6,-,0.00,Snow,Light Snow,220,2013-02-03 02:40:00
9:53 PM,23.0,21.0,92,30.02,1.8,SW,4.6,-,0.01,Snow,Light Snow,230,2013-02-03 02:53:00
10:02 PM,23.0,21.2,93,29.95,2.0,SW,5.8,-,0.00,Snow,Light Snow,230,2013-02-03 03:02:00
10:11 PM,23.0,21.2,93,29.95,3.0,SW,4.6,-,0.00,Snow,Light Snow,230,2013-02-03 03:11:00
10:31 PM,23.0,21.2,93,29.95,3.0,SW,3.5,-,0.00,Snow,Light Snow,230,2013-02-03 03:31:00
10:40 PM,23.0,21.2,93,29.95,4.0,Calm,Calm,-,0.00,Snow,Light Snow,0,2013-02-03 03:40:00
10:53 PM,23.0,21.0,92,30.01,4.0,WSW,3.5,-,0.00,Snow,Light Snow,240,2013-02-03 03:53:00
11:27 PM,23.0,21.2,93,29.94,4.0,WSW,3.5,-,0.00,Snow,Light Snow,250,2013-02-03 04:27:00
11:34 PM,23.0,21.2,93,29.94,4.0,WSW,3.5,-,0.00,Snow,Light Snow,240,2013-02-03 04:34:00
11:53 PM,24.1,21.0,88,30.00,4.0,SW,3.5,-,0.00,Snow,Light Snow,230,2013-02-03 04:53:00